Other Surface Observations
Issued by NWS

Current Version | Previous Version | Text Only | Print | Product List | Glossary On
Versions: 1 2 3 4 5 6 7 8 9 10 11 12 13 14 15 16 17 18 19 20 21 22 23 24 25 26 27 28 29 30 31 32 33 34 35 36 37 38 39 40 41 42 43 44 45 46 47 48 49 50
000
SXUS52 KTAE 030305
OSOTAE
OSOTAE
North Florida/South Alabama/Southwest Georgia Weather Roundup
National Weather Service Tallahassee Florida
1100 PM EDT MON MAY 02 2016

Note: "fair" indicates few or no clouds below 12,000 feet with no
significant weather and/or obstructions to visibility.

!FLZ017-115-028-034-025-030400
...North Florida...

CITY           SKY/WX    TMP DP  RH WIND       PRES   REMARKS
TALLAHASSEE    CLOUDY    77  68  73 W5        29.97F
APALACHICOLA   MOCLDY    77  74  90 S6        29.98R
PERRY          PTCLDY    71  69  93 CALM      29.99F
CROSS CITY       N/A     71  67  87 CALM      29.99R
JACKSONVILLE   MOCLDY    76  70  82 CALM      29.98S
$$

!FLZ112-006-005-002-011-030400
...Florida Panhandle...

CITY           SKY/WX    TMP DP  RH WIND       PRES   REMARKS
MARIANNA       CLOUDY    73  72  96 S6        29.96R
BONIFAY        NOT AVBL
PANAMA CITY NW FAIR      74  72  93 CALM      29.95F
TYNDALL AFB    NOT AVBL
TYND DRONE APT NOT AVBL
DE FUNIAK SPR  FAIR      73  72  97 S3        29.96F
EGLIN AFB      NOT AVBL
DESTIN         CLOUDY    78  75  90 CALM      29.96R
HURLBURT       NOT AVBL
CRESTVIEW      LGT RAIN  70  66  87 SE6       29.95F
PENSACOLA      PTCLDY    71  66  84 CALM      29.95R
$$

!ALZ063-066-030400
...South Alabama...

CITY           SKY/WX    TMP DP  RH WIND       PRES   REMARKS
DOTHAN         CLOUDY    75  67  76 SW7       29.99S
OZARK CAIRNS   NOT AVBL
FT RUCKER HELI CLOUDY    75  67  76 S3        29.94F
RUCKER HELI 3  NOT AVBL
RUCKER HELI 2  NOT AVBL
FLORALA APT    CLOUDY    69  66  90 CALM      29.97F
ANDALUSIA      CLOUDY    75  69  81 CALM      29.96R
TROY           CLOUDY    69  67  93 CALM      29.96S
EUFALA         FAIR      73  69  87 CALM      29.93F
MOBILE         CLOUDY    67  67 100 NW3       29.97R
$$

!GAZ120>161-030400
...Southwest and South Central Georgia...

CITY           SKY/WX    TMP DP  RH WIND       PRES   REMARKS
THOMASVILLE    FAIR      72  68  88 CALM      29.98S
BAINBRIDGE     CLOUDY    72  70  94 SW6       29.96F
MOODY AFB      NOT AVBL
VALDOSTA       PTCLDY    70  68  93 S5        29.97F
MOULTRIE       CLOUDY    72  66  83 CALM      29.97S
BLAKELY        CLOUDY    73  70  88 CALM      29.96S
ALBANY         MOCLDY    70  66  87 S3        29.97F
TIFTON         FAIR      69  69 100 CALM      29.96F
FITZGERALD     FAIR      70  69  95 CALM      29.99S
CORDELE        FAIR      76  68  78 SW5       29.96S
AMERICUS       FAIR      70  70 100 SW3       29.97S
HOMERVILLE     FAIR      72  70  94 CALM      29.98S
$$

!GMZ750-755-770-775-030400
...Coastal and Buoy Obs...

STATION/POSITION TIME  TEMP    WIND        PRES    VSBY  WAVE
                       AIR SEA DIR/SP/G                  HT/PER
                 (UTC) (F)     (DEG/KT/KT) (MB)    (MI)  (FT/S)
KEATON BEACH     0200   77     250/ 10/ 12 1015.0R
CEDAR KEY        0200   77     240/  6/  8 1015.5R
C TOWER          0200   75     190/  7/  7 1015.7R
APALACHICOLA BUO 0250   77 76  210/  6/  6 1015.2R         2/ 6
PANAMA CITY BUOY 0150   78 78  230/  6/  6 1015.1          3/ 6
MOBILE BUOY      0200   76 77  130/  4/  6 1014.0R
ORANGE BCH AL BU 0250   75 76  360/  8/  8 1014.0R         3/ 7
$$




USA.gov is the U.S. government's official web portal to all federal, state and local government web resources and services.